Location: Newark
(42.7133°N, 87.7910°W)
Time: 14:03:08
(UTC+00:00)

Altair - Visible Passes

Search period start: 23 September 2019 00:00
Search period end: 03 October 2019 00:00
Orbit: 1501 x 1683 km, 47.2° (Epoch: 21 September)

Date Brightness Start Highest point End Pass type
(mag) Time Alt. Az. Time Alt. Az. Time Alt. Az.
23 Sep 7.7 01:56:15 10° W 02:06:28 76° NNW 02:13:04 26° ENE visible
23 Sep 7.8 04:02:00 10° WNW 04:11:03 67° NNW 04:11:03 67° NNW visible
23 Sep 9.3 06:07:17 10° WNW 06:09:03 17° WNW 06:09:03 17° WNW visible
24 Sep 7.7 01:31:00 10° WSW 01:41:12 78° NNW 01:48:57 20° ENE visible
24 Sep 7.6 03:36:45 10° WNW 03:46:56 71° N 03:46:56 71° N visible
24 Sep 9.1 05:42:02 10° WNW 05:44:56 22° WNW 05:44:56 22° WNW visible
25 Sep 7.7 01:05:45 10° WSW 01:15:56 80° NNW 01:24:51 15° ENE visible
25 Sep 7.6 03:11:28 10° WNW 03:21:40 70° N 03:22:50 65° NE visible
25 Sep 8.9 05:16:47 10° WNW 05:20:49 28° WNW 05:20:49 28° WNW visible
26 Sep 7.7 00:40:30 10° WSW 00:50:41 82° NNW 01:00:44 11° ENE visible
26 Sep 7.7 02:46:12 10° W 02:56:23 69° N 02:58:43 55° ENE visible
26 Sep 8.6 04:51:34 10° WNW 04:56:43 35° WNW 04:56:43 35° WNW visible
27 Sep 7.8 00:15:17 10° WSW 00:25:26 85° NNW 00:35:41 10° ENE visible
27 Sep 7.7 02:20:55 10° W 02:31:06 69° N 02:34:37 45° ENE visible
27 Sep 8.3 04:26:20 10° WNW 04:32:36 44° WNW 04:32:36 44° WNW visible
27 Sep 7.8 23:50:04 10° WSW 00:00:12 88° NNW 00:10:27 10° ENE visible
28 Sep 7.8 01:55:38 10° W 02:05:48 69° N 02:10:31 37° ENE visible
28 Sep 8.0 04:01:05 10° WNW 04:08:31 55° WNW 04:08:31 55° WNW visible
28 Sep 9.7 06:06:29 10° WNW 06:06:30 10° WNW 06:06:30 10° WNW visible
29 Sep 7.8 01:30:22 10° W 01:40:31 69° N 01:46:26 29° ENE visible
29 Sep 7.7 03:35:51 10° WNW 03:44:26 68° WNW 03:44:26 68° WNW visible
29 Sep 9.5 05:41:10 10° WNW 05:42:25 14° WNW 05:42:25 14° WNW visible
30 Sep 7.8 01:05:05 10° W 01:15:14 69° N 01:22:22 23° ENE visible
30 Sep 7.5 03:10:36 10° WNW 03:20:22 82° NW 03:20:22 82° NW visible
30 Sep 9.3 05:15:52 10° WNW 05:18:21 19° WNW 05:18:21 19° WNW visible
01 Oct 7.8 00:39:49 10° W 00:49:56 69° N 00:58:19 17° ENE visible
01 Oct 7.4 02:45:22 10° WNW 02:55:38 83° NNE 02:56:19 79° ENE visible
01 Oct 9.0 04:50:35 10° WNW 04:54:19 25° W 04:54:19 25° W visible
02 Oct 7.9 00:14:33 10° W 00:24:39 70° N 00:34:17 12° ENE visible
02 Oct 7.5 02:20:07 10° WNW 02:30:22 81° NNE 02:32:17 64° E visible
02 Oct 8.7 04:25:19 10° WNW 04:30:17 31° W 04:30:17 31° W visible
